Home > Weather > Cluj-Napoca > Past weeks

Flag for Romania Weather for the Past 2 Weeks in Cluj-Napoca, Romania

Now
41 °F

Passing clouds.


Feels Like: 38 °F
Forecast: 33 / 44 °F
Wind: 5 mph from North

Location: Cluj Airport-Napoca

Current Time: Feb 10, 2016 at 6:54:19 AM

Latest Report: Feb 10, 2016 at 6:00 AM


Visibility: N/A

Pressure: 29.59 "Hg

Humidity: 87%

Dew point: 37 °F

Location of Cluj-NapocaLocation

Historic Weather in Cluj-Napoca — Graph

°F

Cluj-Napoca Temperature Yesterday

Maximum temperature yesterday: 55 °F (at 4:30 PM)
Minimum temperature yesterday: 30 °F (at 12:00 AM)
Average temperature yesterday: 40 °F

High & Low Weather Summary for the Past Weeks

 TemperatureHumidityPressure
High55 °F (Feb 9, 4:30 PM)100% (Jan 26, 5:00 AM)30.45 "Hg (Jan 26, 5:00 AM)
Low27 °F (Jan 26, 5:00 AM)49% (Feb 6, 3:00 PM)29.59 "Hg (Feb 10, 5:30 AM)
Average36 °F92%30.16 "Hg
* Reported Jan 26 5:00 AM — Feb 10 5:30 AM, Cluj-Napoca, Weather by CustomWeather, © 2016

Note: Actual official high and low records may vary slightly from our data, if they occured in-between our weather recording intervals... More about our weather records

Advertising

Cluj-Napoca Weather History for the Previous 24 Hours

 ConditionsComfort  
Time TempWeatherWind HumidityBarometerVisibility
5:30 AM
Wed, Feb 10
41 °FPassing clouds.7 mph87%29.59 "HgN/A
5:00 AM41 °FPassing clouds.5 mph87%29.62 "HgN/A
4:00 AM41 °FClear.2 mph87%29.65 "Hg10 mi
3:00 AM43 °FClear.2 mph81%29.68 "Hg10 mi
2:00 AM43 °FClear.9 mph87%29.68 "Hg10 mi
1:00 AM43 °FClear.10 mph87%29.74 "Hg10 mi
12:00 AM39 °FClear.8 mph93%29.77 "Hg10 mi
11:30 PM
Tue, Feb 9
39 °FClear.5 mph93%29.80 "Hg10 mi
11:00 PM39 °FClear.2 mph93%29.83 "Hg10 mi
10:30 PM41 °FClear.2 mph87%29.83 "Hg10 mi
10:00 PM43 °FClear.3 mph87%29.83 "Hg10 mi
9:30 PM37 °FPassing clouds.3 mph100%29.83 "HgN/A
9:00 PM37 °FClear.1 mph100%29.86 "Hg10 mi
8:30 PM37 °FClear.2 mph100%29.86 "Hg10 mi
8:00 PM39 °FClear.2 mph100%29.89 "Hg10 mi
7:30 PM41 °FClear.1 mph100%29.89 "Hg10 mi
7:00 PM41 °FClear.5 mph93%29.89 "Hg10 mi
6:30 PM45 °FPassing clouds.3 mph81%29.89 "HgN/A
5:30 PM45 °FPassing clouds.5 mph87%29.92 "HgN/A
5:00 PM52 °FPassing clouds.No wind72%29.92 "HgN/A
4:30 PM55 °FPassing clouds.No wind63%29.92 "HgN/A
4:00 PM52 °FPassing clouds.3 mph72%29.92 "HgN/A
3:30 PM52 °FPassing clouds.2 mph72%29.92 "HgN/A
3:00 PM52 °FPassing clouds.3 mph67%29.95 "HgN/A
2:30 PM50 °FPassing clouds.2 mph71%29.95 "HgN/A
2:00 PM50 °FPassing clouds.1 mph67%29.98 "HgN/A
1:30 PM48 °FScattered clouds.2 mph71%29.98 "HgN/A
12:30 PM45 °FPassing clouds.3 mph76%30.01 "HgN/A
12:00 PM43 °FPassing clouds.6 mph81%30.04 "HgN/A
11:30 AM41 °FLight rain. Broken clouds.5 mph87%30.04 "Hg5 mi
11:00 AM39 °FBroken clouds.2 mph87%30.04 "Hg5 mi
10:00 AM37 °FFog.1 mph93%30.01 "Hg2 mi
9:30 AM36 °FFog.1 mph100%30.04 "Hg1 mi
9:00 AM34 °FFog.No wind100%30.01 "Hg1 mi
8:30 AM34 °FFog.No wind100%30.01 "Hg1 mi
8:00 AM34 °FFog.1 mph100%30.01 "Hg1 mi
7:30 AM34 °FFog.No wind93%29.98 "Hg2 mi
6:30 AM34 °FFog.No wind100%29.98 "Hg2 mi
Weather by CustomWeather, © 2016

See weather overviewHow to use our weather pages